This demonstration page uses our WeatherBlox Daily Observations layout. Learn more.

Left ArrowRight Arrow

Hourly Observations for July 16, 2021

Temp ( °F °C ) Dew Point ( °F °C ) Humidity (%) Winds ( mph kmh ) Pressure ( in mb ) Visibility ( mi km ) Precip ( " mm )
12:53 am 00:53 Clear 65 18.3 42 5.6 43 43 Calm 29.68 1005 10 16 0.00 0.00
1:53 am 01:53 Clear 65 18.3 36 2.2 34 34 Calm 29.68 1005 10 16 0.00 0.00
2:53 am 02:53 Clear 57 13.9 38 3.3 49 49 W 6 9 29.70 1006 10 16 0.00 0.00
3:53 am 03:53 Clear 56 13.3 39 3.9 53 53 SW 7 11 29.72 1006 10 16 0.00 0.00
4:53 am 04:53 Clear 55 12.8 39 3.9 55 55 W 6 9 29.75 1007 10 16 0.00 0.00
5:53 am 05:53 Sunny 53 11.7 39 3.9 59 59 W 6 9 29.76 1008 10 16 0.00 0.00
6:53 am 06:53 Sunny 58 14.4 43 6.1 58 58 W 7 11 29.77 1008 10 16 0.00 0.00
7:53 am 07:53 Sunny 65 18.3 44 6.7 47 47 WSW 9 15 29.79 1009 10 16 0.00 0.00
8:53 am 08:53 Sunny 72 22.2 45 7.2 38 38 WSW 12 19 29.80 1009 9 14 0.00 0.00
9:53 am 09:53 Sunny 79 26.1 43 6.1 28 28 WSW 8 13 29.81 1010 10 16 0.00 0.00
10:53 am 10:53 Sunny 84 28.9 45 7.2 25 25 WSW 10 17 29.82 1010 10 16 0.00 0.00
11:53 am 11:53 Sunny 88 31.1 44 6.7 22 22 WNW 6 9 29.81 1010 10 16 0.00 0.00
12:53 pm 12:53 Sunny 92 33.3 40 4.4 16 16 WNW 8 13 29.80 1009 10 16 0.00 0.00
1:53 pm 13:53 Sunny 93 33.9 39 3.9 15 15 VRB 5 7 29.78 1009 9 14 0.00 0.00
2:53 pm 14:53 Hazy 95 35 34 1.1 12 12 SSW 6 9 29.78 1009 6 10 0.00 0.00
3:53 pm 15:53 Hazy 96 35.6 24 -4.4 7 7 SW 9 15 29.78 1009 6 10 0.00 0.00
4:53 pm 16:53 Sunny 95 35 26 -3.3 8 8 WSW 13 20 29.78 1009 9 14 0.00 0.00
5:53 pm 17:53 Sunny 91 32.8 36 2.2 14 14 SW 13 20 29.78 1009 9 14 0.00 0.00
6:53 pm 18:53 Sunny 92 33.3 37 2.8 14 14 SSW 6 9 29.77 1008 8 13 0.00 0.00
7:53 pm 19:53 Sunny 88 31.1 40 4.4 18 18 S 7 11 29.77 1008 8 13 0.00 0.00
8:53 pm 20:53 Sunny 79 26.1 42 5.6 27 27 SW 7 11 29.78 1009 7 11 0.00 0.00
9:53 pm 21:53 Clear 73 22.8 40 4.4 30 30 SSW 8 13 29.79 1009 8 13 0.00 0.00
10:53 pm 22:53 Clear 71 21.7 40 4.4 32 32 WNW 6 9 29.81 1009 8 13 0.00 0.00
11:53 pm 23:53 Clear 66 18.9 40 4.4 39 39 S 5 7 29.81 1009 8 13 0.00 0.00

Powered by AerisWeather